FW7205 Weather Reports


Display with metric or nautical units.
time (UTC)temp
F
wind
direction
speed
MPH
gust
MPH
rain 1hr
in
rain 24hr
in
rain mn
in
humidity
%
barometer
mb
20220122044633 37 90 0.0 2.0 0.00 0.00 0.00 47 1030.0
20220122044052 37 0 0.0 2.0 0.00 0.00 0.00 46 1029.9
20220122043557 38 0 0.0 1.0 0.00 0.00 0.00 45 1029.8
20220122043126 38 0 0.0 2.0 0.00 0.00 0.00 45 1029.7
20220122042551 38 0 0.0 2.0 0.00 0.00 0.00 44 1029.8
20220122042106 38 65 0.0 2.0 0.00 0.00 0.00 45 1029.5
20220122041719 38 58 0.0 2.0 0.00 0.00 0.00 45 1029.4
20220122041052 38 0 0.0 2.0 0.00 0.00 0.00 43 1029.4
20220122040554 38 0 0.0 2.0 0.00 0.00 0.00 45 1029.4
20220122040119 38 0 0.0 2.0 0.00 0.00 0.00 46 1029.3
20220122035552 38 0 0.0 2.0 0.00 0.00 0.00 44 1029.4
20220122035054 38 57 0.0 2.0 0.00 0.00 0.00 44 1029.4
20220122034606 38 0 0.0 2.0 0.00 0.00 0.00 43 1029.4
20220122034052 38 0 0.0 2.0 0.00 0.00 0.00 43 1029.4
20220122033551 39 0 0.0 2.0 0.00 0.00 0.00 44 1029.3
20220122033108 39 0 0.0 2.0 0.00 0.00 0.00 44 1029.3
20220122032553 39 0 0.0 3.0 0.00 0.00 0.00 43 1029.3
20220122032054 39 0 0.0 3.0 0.00 0.00 0.00 42 1029.2
20220122031651 39 0 0.0 3.0 0.00 0.00 0.00 43 1029.1
20220122031107 39 48 0.0 3.0 0.00 0.00 0.00 42 1029.1
20220122030554 39 92 1.0 2.0 0.00 0.00 0.00 44 1029.1
20220122030152 39 0 0.0 2.0 0.00 0.00 0.00 43 1029.1
20220122025551 39 0 0.0 2.0 0.00 0.00 0.00 42 1029.2
20220122025052 39 46 0.0 1.0 0.00 0.00 0.00 43 1029.2
20220122024707 39 0 0.0 1.0 0.00 0.00 0.00 43 1029.2
20220122024109 39 0 0.0 1.0 0.00 0.00 0.00 41 1029.2
20220122023553 39 0 0.0 3.0 0.00 0.00 0.00 40 1029.1
20220122023130 39 0 0.0 3.0 0.00 0.00 0.00 39 1029.2
20220122022601 39 0 0.0 3.0 0.00 0.00 0.00 38 1029.2
20220122022101 39 0 0.0 3.0 0.00 0.00 0.00 40 1029.0
20220122021650 39 70 0.0 4.0 0.00 0.00 0.00 38 1029.0
20220122021105 40 69 1.0 4.0 0.00 0.00 0.00 38 1029.0
20220122020554 40 0 0.0 2.0 0.00 0.00 0.00 40 1028.9
20220122020208 40 0 0.0 2.0 0.00 0.00 0.00 40 1028.9
20220122015601 40 44 0.0 2.0 0.00 0.00 0.00 41 1028.8
20220122015108 40 0 0.0 1.0 0.00 0.00 0.00 39 1028.9
20220122014921 40 0 0.0 1.0 0.00 0.00 0.00 42 1028.8
20220122014109 40 44 0.0 1.0 0.00 0.00 0.00 41 1028.9
20220122013553 40 0 0.0 1.0 0.00 0.00 0.00 41 1029.0
20220122013137 40 0 0.0 1.0 0.00 0.00 0.00 41 1028.8
20220122012553 40 0 0.0 1.0 0.00 0.00 0.00 39 1028.8
20220122012108 40 0 0.0 1.0 0.00 0.00 0.00 37 1028.9
20220122011640 40 0 0.0 1.0 0.00 0.00 0.00 39 1028.8
20220122011058 40 0 0.0 1.0 0.00 0.00 0.00 37 1028.6
20220122010553 40 44 0.0 1.0 0.00 0.00 0.00 38 1028.5
20220122010206 41 0 0.0 1.0 0.00 0.00 0.00 38 1028.4
20220122005553 41 0 0.0 2.0 0.00 0.00 0.00 37 1028.5
20220122005054 41 0 0.0 2.0 0.00 0.00 0.00 36 1028.3
20220122004619 41 0 0.0 1.0 0.00 0.00 0.00 35 1028.2
20220122004111 41 0 0.0 1.0 0.00 0.00 0.00 36 1028.3
20220122003603 41 0 0.0 2.0 0.00 0.00 0.00 36 1028.4
20220122003223 41 0 0.0 2.0 0.00 0.00 0.00 36 1028.3
20220122002625 41 0 0.0 1.0 0.00 0.00 0.00 37 1028.1
20220122002053 41 0 0.0 2.0 0.00 0.00 0.00 36 1028.2
20220122001701 42 0 0.0 2.0 0.00 0.00 0.00 36 1028.0
20220122001053 42 0 0.0 2.0 0.00 0.00 0.00 36 1028.0
20220122000553 42 44 0.0 1.0 0.00 0.00 0.00 35 1028.0
20220122000153 42 0 0.0 3.0 0.00 0.00 0.00 35 1027.9
20220121235554 42 0 0.0 3.0 0.00 0.00 0.00 34 1027.8
20220121235053 42 0 0.0 3.0 0.00 0.00 0.00 35 1027.6
20220121234646 42 92 1.0 3.0 0.00 0.00 0.00 37 1027.5
20220121234056 42 60 0.0 3.0 0.00 0.00 0.00 34 1027.5
20220121233553 42 61 1.0 3.0 0.00 0.00 0.00 34 1027.5
20220121233249 42 80 0.0 4.0 0.00 0.00 0.00 31 1027.4
20220121232554 42 0 0.0 4.0 0.00 0.00 0.00 31 1027.4
20220121232051 43 65 1.0 4.0 0.00 0.00 0.00 31 1027.5
20220121231721 43 24 0.0 3.0 0.00 0.00 0.00 31 1027.5
20220121231054 43 43 0.0 5.0 0.00 0.00 0.00 30 1027.5
20220121230554 43 85 1.0 5.0 0.00 0.00 0.00 29 1027.5
20220121230153 44 15 1.0 5.0 0.00 0.00 0.00 29 1027.4
20220121225554 44 57 0.0 3.0 0.00 0.00 0.00 29 1027.4
20220121225054 44 0 0.0 4.0 0.00 0.00 0.00 29 1027.4
20220121224629 44 0 0.0 5.0 0.00 0.00 0.00 29 1027.6
20220121224122 44 0 1.0 5.0 0.00 0.00 0.00 29 1027.5
20220121223623 45 184 1.0 5.0 0.00 0.00 0.00 28 1027.6
20220121223131 45 43 0.0 6.0 0.00 0.00 0.00 28 1027.6
20220121222605 45 80 1.0 6.0 0.00 0.00 0.00 28 1027.7
20220121222051 45 65 2.0 5.0 0.00 0.00 0.00 28 1027.7
20220121221857 45 45 1.0 4.0 0.00 0.00 0.00 28 1027.7
20220121221053 44 80 1.0 4.0 0.00 0.00 0.00 28 1027.7
20220121220550 46 65 2.0 4.0 0.00 0.00 0.00 26 1027.8
20220121220123 46 86 1.0 5.0 0.00 0.00 0.00 26 1028.0
20220121215558 47 101 1.0 5.0 0.00 0.00 0.00 26 1028.1
20220121215054 46 5 2.0 4.0 0.00 0.00 0.00 25 1028.1
20220121214955 49 26 0.0 6.0 0.00 0.00 0.00 24 1028.2
20220121214052 49 96 1.0 7.0 0.00 0.00 0.00 25 1028.1
20220121213553 48 74 2.0 7.0 0.00 0.00 0.00 25 1028.3
20220121213245 49 72 1.0 4.0 0.00 0.00 0.00 25 1028.3
20220121212554 49 0 1.0 7.0 0.00 0.00 0.00 27 1028.3
20220121212122 48 71 1.0 7.0 0.00 0.00 0.00 26 1028.4
20220121211816 49 67 2.0 5.0 0.00 0.00 0.00 25 1028.5
20220121211053 49 0 1.0 5.0 0.00 0.00 0.00 26 1028.4
20220121210559 47 19 1.0 4.0 0.00 0.00 0.00 25 1028.5
20220121210143 48 71 2.0 7.0 0.00 0.00 0.00 25 1028.5
20220121205551 47 198 1.0 7.0 0.00 0.00 0.00 25 1028.6
20220121205053 48 5 2.0 7.0 0.00 0.00 0.00 26 1028.6
20220121204722 48 348 2.0 5.0 0.00 0.00 0.00 24 1028.5
20220121204052 50 69 1.0 5.0 0.00 0.00 0.00 24 1028.5
20220121203551 48 350 1.0 7.0 0.00 0.00 0.00 26 1028.5
20220121203252 47 338 3.0 7.0 0.00 0.00 0.00 25 1028.4
20220121202551 46 74 2.0 6.0 0.00 0.00 0.00 26 1028.5
20220121202051 49 180 2.0 7.0 0.00 0.00 0.00 25 1028.5
20220121201810 48 89 2.0 7.0 0.00 0.00 0.00 26 1028.6
20220121201051 46 331 1.0 4.0 0.00 0.00 0.00 26 1028.6
20220121200552 47 59 2.0 4.0 0.00 0.00 0.00 27 1028.8
20220121200125 46 73 1.0 4.0 0.00 0.00 0.00 27 1028.8
20220121195551 49 67 1.0 4.0 0.00 0.00 0.00 26 1028.8
20220121195051 47 81 1.0 6.0 0.00 0.00 0.00 28 1028.9
20220121194641 47 112 2.0 6.0 0.00 0.00 0.00 27 1029.2
20220121194051 48 51 1.0 5.0 0.00 0.00 0.00 26 1029.2
20220121193551 47 5 1.0 7.0 0.00 0.00 0.00 27 1029.2
20220121193327 48 89 1.0 7.0 0.00 0.00 0.00 27 1029.5
20220121192559 44 105 1.0 5.0 0.00 0.00 0.00 29 1029.5
20220121192051 46 69 1.0 7.0 0.00 0.00 0.00 27 1029.7
20220121191620 46 34 1.0 7.0 0.00 0.00 0.00 30 1029.8
20220121191051 46 28 2.0 5.0 0.00 0.00 0.00 26 1029.8
20220121190605 50 182 1.0 5.0 0.00 0.00 0.00 27 1030.0
20220121190131 45 355 1.0 4.0 0.00 0.00 0.00 26 1030.3
20220121185552 45 124 1.0 4.0 0.00 0.00 0.00 29 1030.4
20220121185134 45 30 2.0 8.0 0.00 0.00 0.00 31 1030.4
20220121184612 46 348 2.0 8.0 0.00 0.00 0.00 26 1030.6
20220121184054 47 0 2.0 4.0 0.00 0.00 0.00 29 1030.7
20220121183559 47 355 1.0 4.0 0.00 0.00 0.00 26 1030.6
20220121183135 45 0 1.0 4.0 0.00 0.00 0.00 30 1030.9
20220121182553 44 274 1.0 4.0 0.00 0.00 0.00 30 1031.0
20220121182123 44 197 1.0 4.0 0.00 0.00 0.00 28 1031.2
20220121181653 46 332 1.0 5.0 0.00 0.00 0.00 29 1031.2
20220121181050 44 92 2.0 5.0 0.00 0.00 0.00 30 1031.3
20220121180553 47 101 0.0 4.0 0.00 0.00 0.00 30 1031.4
20220121180143 44 38 2.0 4.0 0.00 0.00 0.00 33 1031.4
20220121175605 43 31 1.0 5.0 0.00 0.00 0.00 33 1031.5
20220121175105 44 5 2.0 5.0 0.00 0.00 0.00 31 1031.5
20220121174640 45 110 1.0 5.0 0.00 0.00 0.00 32 1031.7
20220121174050 43 89 2.0 6.0 0.00 0.00 0.00 32 1031.7
20220121173558 44 137 1.0 6.0 0.00 0.00 0.00 32 1031.8
20220121173144 43 156 0.0 4.0 0.00 0.00 0.00 33 1031.7
20220121172551 42 90 1.0 5.0 0.00 0.00 0.00 33 1031.9
20220121172056 42 180 2.0 6.0 0.00 0.00 0.00 34 1032.0
20220121171647 42 51 1.0 6.0 0.00 0.00 0.00 34 1032.0
20220121171051 41 157 1.0 6.0 0.00 0.00 0.00 35 1032.1
20220121170553 40 32 1.0 4.0 0.00 0.00 0.00 35 1032.0
20220121170201 39 81 2.0 4.0 0.00 0.00 0.00 37 1032.0
20220121165553 38 55 1.0 5.0 0.00 0.00 0.00 36 1032.0
20220121165136 38 68 1.0 5.0 0.00 0.00 0.00 36 1032.0
20220121164647 37 46 1.0 4.0 0.00 0.00 0.00 39 1032.1
20220121164100 36 44 1.0 8.0 0.00 0.00 0.00 38 1031.9
20220121163553 36 0 2.0 8.0 0.00 0.00 0.00 39 1032.0
20220121163210 35 0 1.0 6.0 0.00 0.00 0.00 40 1032.1
20220121162551 34 0 2.0 4.0 0.00 0.00 0.00 41 1032.2
20220121162059 33 101 1.0 4.0 0.00 0.00 0.00 42 1032.0
20220121161622 33 51 1.0 5.0 0.00 0.00 0.00 42 1032.3
20220121161053 32 13 2.0 5.0 0.00 0.00 0.00 43 1032.2
20220121160552 31 22 1.0 4.0 0.00 0.00 0.00 44 1031.9
20220121160141 30 5 1.0 6.0 0.00 0.00 0.00 44 1032.1
20220121155550 30 49 1.0 7.0 0.00 0.00 0.00 45 1032.1
20220121155050 29 355 2.0 7.0 0.00 0.00 0.00 45 1031.9
20220121154735 28 94 2.0 5.0 0.00 0.00 0.00 46 1032.0
20220121154050 27 69 2.0 6.0 0.00 0.00 0.00 46 1031.9
20220121153553 27 84 2.0 6.0 0.00 0.00 0.00 47 1032.1
20220121153117 27 333 2.0 4.0 0.00 0.00 0.00 47 1032.0
20220121152558 26 28 1.0 5.0 0.00 0.00 0.00 48 1031.9
20220121152050 26 30 1.0 5.0 0.00 0.00 0.00 48 1031.7
20220121151631 26 41 1.0 3.0 0.00 0.00 0.00 49 1031.9
20220121151106 25 28 1.0 5.0 0.00 0.00 0.00 48 1031.9
20220121150604 25 0 2.0 5.0 0.00 0.00 0.00 49 1031.7
20220121150209 25 0 1.0 4.0 0.00 0.00 0.00 49 1031.6
20220121145553 25 17 1.0 4.0 0.00 0.00 0.00 49 1031.5
20220121145052 25 28 1.0 4.0 0.00 0.00 0.00 49 1031.4
20220121144743 25 89 1.0 3.0 0.00 0.00 0.00 50 1031.4
20220121144053 24 40 1.0 3.0 0.00 0.00 0.00 50 1031.4
20220121143555 24 91 1.0 4.0 0.00 0.00 0.00 50 1031.4
20220121143139 24 78 1.0 4.0 0.00 0.00 0.00 49 1031.3
20220121142556 24 56 1.0 5.0 0.00 0.00 0.00 49 1031.3
20220121142054 24 5 2.0 5.0 0.00 0.00 0.00 49 1031.3
20220121141625 24 21 1.0 4.0 0.00 0.00 0.00 50 1031.3
20220121141056 24 36 1.0 3.0 0.00 0.00 0.00 50 1031.4
20220121140600 24 36 0.0 3.0 0.00 0.00 0.00 50 1031.6
20220121140131 24 33 1.0 3.0 0.00 0.00 0.00 50 1031.5
20220121135559 24 15 0.0 2.0 0.00 0.00 0.00 50 1031.5
20220121135052 24 15 0.0 2.0 0.00 0.00 0.00 49 1031.5
20220121134628 24 15 0.0 3.0 0.00 0.00 0.00 50 1031.3
20220121134053 24 20 0.0 3.0 0.00 0.00 0.00 49 1031.3
20220121133553 24 19 0.0 2.0 0.00 0.00 0.00 49 1031.3
20220121133217 24 0 0.0 2.0 0.00 0.00 0.00 49 1031.1
20220121132553 24 19 0.0 2.0 0.00 0.00 0.00 49 1031.0
20220121132054 24 0 0.0 1.0 0.00 0.00 0.00 49 1031.0
20220121131643 24 0 0.0 2.0 0.00 0.00 0.00 48 1031.1
20220121131052 24 0 0.0 3.0 0.00 0.00 0.00 48 1031.0
20220121130552 24 0 1.0 3.0 0.00 0.00 0.00 48 1030.9
20220121130148 24 0 0.0 2.0 0.00 0.00 0.00 49 1030.9
20220121125552 24 0 0.0 3.0 0.00 0.00 0.00 48 1030.9
20220121125100 24 22 0.0 3.0 0.00 0.00 0.00 48 1030.7
20220121124635 24 0 0.0 2.0 0.00 0.00 0.00 48 1030.7
20220121124103 24 22 0.0 3.0 0.00 0.00 0.00 48 1030.7
20220121123606 24 22 0.0 3.0 0.00 0.00 0.00 48 1030.6
20220121123208 24 0 0.0 2.0 0.00 0.00 0.00 47 1030.5
20220121122554 24 0 0.0 2.0 0.00 0.00 0.00 47 1030.6
20220121122053 24 0 0.0 2.0 0.00 0.00 0.00 47 1030.5
20220121121654 24 5 0.0 3.0 0.00 0.00 0.00 47 1030.6
20220121121052 24 5 0.0 3.0 0.00 0.00 0.00 46 1030.6
20220121120612 24 5 0.0 3.0 0.00 0.00 0.00 46 1030.7
20220121120154 24 26 1.0 3.0 0.00 0.00 0.00 46 1030.6
20220121115606 24 19 1.0 3.0 0.00 0.00 0.00 46 1030.6
20220121115052 25 24 0.0 3.0 0.00 0.00 0.00 46 1030.5
20220121114659 25 19 1.0 3.0 0.00 0.00 0.00 46 1030.6
20220121114052 25 34 0.0 5.0 0.00 0.00 0.00 45 1030.6
20220121113552 25 34 2.0 5.0 0.00 0.00 0.00 45 1030.6
20220121113302 25 329 1.0 4.0 0.00 0.00 0.00 45 1030.6
20220121112557 25 360 1.0 4.0 0.00 0.00 0.00 45 1030.6
20220121112052 25 38 0.0 3.0 0.00 0.00 0.00 45 1030.8
20220121111614 25 360 1.0 6.0 0.00 0.00 0.00 44 1030.6
20220121111053 25 11 1.0 6.0 0.00 0.00 0.00 44 1030.5
20220121110605 25 30 2.0 5.0 0.00 0.00 0.00 44 1030.8
20220121110215 26 0 1.0 4.0 0.00 0.00 0.00 44 1030.6
20220121105553 26 36 0.0 5.0 0.00 0.00 0.00 43 1030.7
20220121105052 26 37 1.0 5.0 0.00 0.00 0.00 43 1030.7
20220121104631 26 22 1.0 4.0 0.00 0.00 0.00 43 1030.7
20220121104056 26 35 0.0 4.0 0.00 0.00 0.00 43 1030.6
20220121103625 26 5 1.0 4.0 0.00 0.00 0.00 43 1030.7
20220121103104 26 19 1.0 4.0 0.00 0.00 0.00 43 1030.8
20220121102552 26 36 0.0 3.0 0.00 0.00 0.00 43 1030.7
20220121102056 26 51 0.0 3.0 0.00 0.00 0.00 43 1030.7
20220121101653 26 42 1.0 5.0 0.00 0.00 0.00 43 1030.8
20220121101054 26 42 1.0 5.0 0.00 0.00 0.00 42 1030.7
20220121100553 26 35 1.0 4.0 0.00 0.00 0.00 42 1030.9
20220121100135 26 360 2.0 6.0 0.00 0.00 0.00 42 1030.7
20220121095552 27 328 1.0 6.0 0.00 0.00 0.00 42 1030.9
20220121095052 27 5 2.0 6.0 0.00 0.00 0.00 42 1030.8
20220121094730 27 10 3.0 6.0 0.00 0.00 0.00 42 1031.1
20220121094059 27 34 1.0 5.0 0.00 0.00 0.00 42 1031.0
20220121093557 27 0 1.0 5.0 0.00 0.00 0.00 42 1031.1
20220121093147 27 69 1.0 4.0 0.00 0.00 0.00 42 1031.0
20220121092553 27 23 0.0 7.0 0.00 0.00 0.00 41 1031.1
20220121092145 27 26 3.0 7.0 0.00 0.00 0.00 41 1031.1
20220121091651 27 30 1.0 4.0 0.00 0.00 0.00 41 1031.0
20220121091105 27 29 2.0 5.0 0.00 0.00 0.00 41 1031.1
20220121090552 27 44 1.0 5.0 0.00 0.00 0.00 41 1031.1
20220121090139 27 345 2.0 5.0 0.00 0.00 0.00 40 1031.3
20220121085553 27 69 2.0 4.0 0.00 0.00 0.00 40 1031.3
20220121085059 27 15 1.0 4.0 0.00 0.00 0.00 41 1031.2
20220121084610 27 29 2.0 4.0 0.00 0.00 0.00 41 1031.3
20220121084104 27 338 1.0 4.0 0.00 0.00 0.00 41 1031.3
20220121083605 27 36 0.0 4.0 0.00 0.00 0.00 41 1031.4
20220121083137 28 5 2.0 6.0 0.00 0.00 0.00 40 1031.2
20220121082706 28 0 2.0 6.0 0.00 0.00 0.00 40 1031.3
20220121082050 28 38 2.0 4.0 0.00 0.00 0.00 40 1031.3
20220121081700 28 39 2.0 4.0 0.00 0.00 0.00 40 1031.4
20220121081053 28 5 0.0 5.0 0.00 0.00 0.00 40 1031.2
20220121080555 28 347 2.0 6.0 0.00 0.00 0.00 40 1031.4
20220121080156 28 40 2.0 6.0 0.00 0.00 0.00 39 1031.4
20220121075554 28 349 2.0 6.0 0.00 0.00 0.00 39 1031.4
20220121075105 28 326 3.0 6.0 0.00 0.00 0.00 39 1031.3
20220121074659 28 14 2.0 5.0 0.00 0.00 0.00 39 1031.4
20220121074101 28 19 2.0 5.0 0.00 0.00 0.00 39 1031.6
20220121073601 28 21 2.0 6.0 0.00 0.00 0.00 39 1031.5
20220121073240 28 0 2.0 6.0 0.00 0.00 0.00 39 1031.4
20220121072556 28 26 1.0 4.0 0.00 0.00 0.00 39 1031.4
20220121072103 28 15 1.0 5.0 0.00 0.00 0.00 39 1031.4
20220121071614 28 342 2.0 5.0 0.00 0.00 0.00 38 1031.3
20220121071052 28 32 1.0 8.0 0.00 0.00 0.00 38 1031.4
20220121070550 28 338 2.0 8.0 0.00 0.00 0.00 38 1031.2
20220121070128 28 42 1.0 5.0 0.00 0.00 0.00 38 1031.4
20220121065552 29 54 2.0 6.0 0.00 0.00 0.00 38 1031.6
20220121065052 29 21 2.0 6.0 0.00 0.00 0.00 38 1031.5
20220121064615 29 9 1.0 5.0 0.00 0.00 0.00 38 1031.5
20220121064057 29 360 2.0 5.0 0.00 0.00 0.00 37 1031.8
20220121063602 29 27 2.0 6.0 0.00 0.00 0.00 38 1031.8
20220121063221 29 26 2.0 6.0 0.00 0.00 0.00 37 1031.8
20220121062552 29 350 1.0 5.0 0.00 0.00 0.00 38 1031.8
20220121062052 29 78 2.0 5.0 0.00 0.00 0.00 38 1032.0
20220121061616 29 56 2.0 5.0 0.00 0.00 0.00 37 1032.0
20220121061052 29 30 2.0 5.0 0.00 0.00 0.00 37 1032.0
20220121060641 29 12 1.0 6.0 0.00 0.00 0.00 38 1032.2
20220121060217 29 22 2.0 6.0 0.00 0.00 0.00 37 1032.0
20220121055552 29 20 2.0 7.0 0.00 0.00 0.00 37 1032.1
20220121055052 29 20 2.0 7.0 0.00 0.00 0.00 37 1032.0
20220121054626 29 20 1.0 5.0 0.00 0.00 0.00 38 1032.1
20220121054052 29 15 2.0 5.0 0.00 0.00 0.00 37 1032.1
20220121053552 29 5 1.0 5.0 0.00 0.00 0.00 37 1032.0
20220121053111 29 40 1.0 4.0 0.00 0.00 0.00 37 1032.2
20220121052557 29 17 1.0 4.0 0.00 0.00 0.00 37 1032.2
20220121052052 29 36 2.0 6.0 0.00 0.00 0.00 36 1032.4
20220121051731 29 49 2.0 7.0 0.00 0.00 0.00 36 1032.1
20220121051052 29 16 2.0 7.0 0.00 0.00 0.00 36 1032.1
20220121050551 29 315 2.0 7.0 0.00 0.00 0.00 36 1032.1
20220121050118 29 30 3.0 7.0 0.00 0.00 0.00 36 1032.3
20220121045554 29 21 2.0 6.0 0.00 0.00 0.00 36 1032.1
20220121045051 29 5 1.0 8.0 0.00 0.00 0.00 36 1032.3